Domov               UVHVVR             MKGP            O straneh              
ZDRAVSTVENO VARSTVO RASTLIN
  MREŽA AGROMET. POSTAJ
 ► PROGNOSTIČNA OBVESTILA
AGROMETEOROLOŠKI PODATKI -
ARSO
OBVLADOVANJE TVEGANJ ZARADI
NEUGODNIH VREMENSKIH RAZMER
  ► NARAVNE NESREČE
  ► SUŠA/MOČA
  ► NAMAKANJE
  ► ŽLED (gozdarstvo)
KARTOGRAFSKI PRIKAZI
SPLETNE POVEZAVE
PROJEKTI IN PUBLIKACIJE

AGROMETEOROLOŠKA MREŽA: VREMENSKE POSTAJE IN FENOLOŠKA OPAZOVANJA

Pregled podatkov za lokacijo Drašiči, meteorološka postaja 38741

Pregled senzorjev na lokaciji

ID Ime Zadnja
vrednost
Datum in čas
zadnje
spremembe
(Lokalni čas)
Tip
senzorja
1867 Omočenost lista (U) 3 U 18.1.2020 16:30 A730WET
5063 Padavine (mm) 0 mm 18.1.2020 16:30 Generic 0.2 mm
1866 Relativna vlaga 2 m (% RH) 99.93 % RH 18.1.2020 16:30 50YA
1865 Temperatura 2 m (°C) -0.71 °C 18.1.2020 16:30 50YA

Pregled podatkov zadnjih 24 ur

Zap.
št.
Datum in čas
(Centralno
evropski čas)
Drašiči
Omočenost
lista
Padavine Relativna
vlaga
2
m
Temperatura
2
m
1 18.1.2020 17:00
2 18.1.2020 16:30 3 0 99.9 -0.7
3 18.1.2020 16:00 3 0 99.9 -0.6
4 18.1.2020 15:30 3 0 99.9 -0.5
5 18.1.2020 15:00 5 0 99.9 -0.5
6 18.1.2020 14:30 8 0 99.9 -0.6
7 18.1.2020 14:00 10 0 99.9 -0.6
8 18.1.2020 13:30 10 0 99.9 -0.5
9 18.1.2020 13:00 10 0 99.9 -0.5
10 18.1.2020 12:30 10 0 99.9 -0.6
11 18.1.2020 12:00 10 0 99.9 -0.7
12 18.1.2020 11:30 10 0 99.9 -0.8
13 18.1.2020 11:00 10 0 99.9 -0.7
14 18.1.2020 10:30 10 0 99.9 -0.8
15 18.1.2020 10:00 10 0 99.9 -0.8
16 18.1.2020 09:30 10 0 99.9 -0.7
17 18.1.2020 09:00 10 0 99.9 -0.7
18 18.1.2020 08:30 10 0 99.9 -0.8
19 18.1.2020 08:00 7 0 99.9 -0.8
20 18.1.2020 07:30 4 0 99.9 -0.8
21 18.1.2020 07:00 3 0 99.9 -0.8
22 18.1.2020 06:30 4 0 99.9 -0.7
23 18.1.2020 06:00 6 0 99.9 -0.7
24 18.1.2020 05:30 5 0 99.9 -0.7
25 18.1.2020 05:00 7 0 99.9 -0.7
26 18.1.2020 04:30 6 0 99.9 -0.8
27 18.1.2020 04:00 5 0 99.9 -0.7
28 18.1.2020 03:30 10 0 99.9 -0.7
29 18.1.2020 03:00 10 0 99.9 -0.7
30 18.1.2020 02:30 10 0 99.9 -0.6
31 18.1.2020 02:00 10 0 99.9 -0.6
32 18.1.2020 01:30 10 0 99.9 -0.6
33 18.1.2020 01:00 10 0 99.9 -0.6
34 18.1.2020 00:30 10 0 99.9 -0.5
35 18.1.2020 00:00 10 0 99.9 -0.4
36 17.1.2020 23:30 10 0 99.9 -0.4
37 17.1.2020 23:00 10 0 99.9 -0.4
38 17.1.2020 22:30 10 0 99.9 -0.3
39 17.1.2020 22:00 10 0 99.9 -0.2
40 17.1.2020 21:30 9 0 99.9 -0.1
41 17.1.2020 21:00 4 0 99.9 -0.1
42 17.1.2020 20:30 2 0 99.9 -0.1
43 17.1.2020 20:00 0 0 99.9 -0.1
44 17.1.2020 19:30 0 0 99.9 0
45 17.1.2020 19:00 0 0 99.9 0
46 17.1.2020 18:30 0 0 99.9 0
47 17.1.2020 18:00 0 0 99.9 0.1
48 17.1.2020 17:30 0 0 99.9 0.1
© 2011 Ministrstvo za kmetijstvo, gozdarstvo in prehrano. Vse pravice pridržane.